[[{"header":{"parameterUnit":"m.s-1","parameterCategory":1,"la1":30.2991,"la2":30.254,"lo1":-89.0895,"lo2":-89.0444,"dy":0.0017,"dx":0.0017,"nx":28,"ny":28,"refTime":"2023-11-06T03:00:00:Z","depth":0,"parameterNumber":2,"parameterNumberName":"U-component_of_WINDS"},"data":[0,0,0,0,0,0,0,0,0,0,0,0,0,0,0,0,0,0,0,0,0,0,0,0,0,0,0,0,0,0,0,0,0,0,0,0,0,0,0,0,0,0,0,0,0,0,0,0,0,0,0,0,0,0,0,0,0,0,1.1787,1.1788,0,1.1864,1.1865,1.1866,1.1895,1.1895,1.1895,1.1894,1.1975,1.1977,1.1979,0,0,0,0,0,0,0,0,0,0,0,0,0,1.1661,1.1663,1.1787,1.1788,1.1789,1.1864,1.1865,1.1866,1.1895,1.1895,1.1895,1.1894,1.1974,1.1977,1.1979,0,0,0,0,0,0,0,0,0,0,0,0,0,1.1725,1.1664,1.1786,1.1812,1.1815,1.1864,1.1865,1.1867,1.1895,1.1895,1.1895,1.1894,1.1973,1.1976,1.198,1.2009,0,0,1.1991,1.1992,0,0,0,0,0,0,0,0,1.1721,1.1729,1.1807,1.181,1.1814,1.187,1.1851,1.1915,1.1895,1.1865,1.1894,1.1894,1.194,1.1946,1.1962,1.2013,1.2016,1.1991,1.1993,1.1995,1.1996,0,0,0,0,0,0,0,1.1717,1.1726,1.1817,1.1808,1.1812,1.1819,1.1828,1.1863,1.1904,1.1867,1.187,1.1879,1.1942,1.1958,1.1964,1.2018,1.1991,1.1994,1.1996,1.1998,1.2094,1.2095,0,0,0,0,0,0,1.1708,1.1722,1.1815,1.182,1.1766,1.1821,1.1831,1.1852,1.1903,1.1911,1.1879,1.188,1.1952,1.196,1.1967,1.2003,1.1995,1.1998,1.2,1.2094,1.2094,1.2095,0,0,0,0,0,0,1.1705,1.1716,1.1812,1.1772,1.1784,1.1824,1.1847,1.1854,1.187,1.1912,1.1919,1.1888,1.1952,1.1962,1.1998,1.2006,1.2,1.2003,1.2093,1.2094,1.2094,1.2076,0,0,0,0,0,0,1.1702,1.1715,1.1727,1.1772,1.1786,1.1842,1.1848,1.1856,1.1876,1.1878,1.1923,1.193,1.1953,1.1992,1.2001,1.2011,1.2006,1.2093,1.2094,1.2094,1.2077,1.2076,1.2076,0,0,0,0,0,1.1697,1.172,1.1728,1.1739,1.1803,1.1843,1.1851,1.1877,1.1877,1.1889,1.1915,1.1928,1.2004,1.1996,1.2006,1.2017,1.2092,1.2093,1.2094,1.2077,1.2076,1.2076,0,0,0,0,0,0,1.1676,1.1726,1.1736,1.1773,1.1803,1.1847,1.1864,1.1876,1.1907,1.1908,1.1939,1.1948,1.1981,1.2003,1.1993,1.2047,1.2049,1.2052,1.2032,1.2032,1.2032,1.2026,1.2008,0,0,0,0,0,1.1675,1.1704,1.1746,1.1776,1.179,1.1824,1.1842,1.186,1.1892,1.1905,1.1934,1.1965,1.1995,1.2015,1.2045,1.2079,1.2089,1.2092,1.2092,1.2091,1.2094,1.2111,1.2113,1.2098,1.2098,1.2098,0,0,1.1675,1.1706,1.1723,1.1772,1.1797,1.1825,1.1835,1.1865,1.1885,1.191,1.1945,1.1967,1.2003,1.2038,1.2055,1.2057,1.21,1.2093,1.2092,1.2095,1.2113,1.2114,1.2115,1.2099,1.2099,1.2098,0,0,1.1689,1.1716,1.1742,1.1767,1.1804,1.1826,1.1832,1.1874,1.1889,1.1925,1.1943,1.1968,1.2021,1.2045,1.2064,1.2084,1.2097,1.2093,1.2093,1.211,1.2111,1.2112,1.2118,1.212,1.2095,1.2095,1.2095,0,1.1684,1.1728,1.1754,1.1782,1.1803,1.1825,1.1851,1.1873,1.1919,1.1932,1.1934,1.1998,1.2024,1.2064,1.2068,1.2084,1.2091,1.2088,1.2109,1.211,1.2111,1.2117,1.212,1.2094,1.2094,1.2094,1.2095,0,1.1718,1.1748,1.1765,1.1807,1.1829,1.1856,1.1886,1.1905,1.192,1.1941,1.1976,1.2008,1.2044,1.2055,1.207,1.2096,1.2096,1.2103,1.2105,1.2112,1.2118,1.212,1.2093,1.2094,1.2094,1.2094,0,0,1.1723,1.1778,1.1783,1.1802,1.1844,1.1867,1.1894,1.1929,1.1944,1.1974,1.1997,1.2039,1.2045,1.2067,1.2084,1.2099,1.2111,1.2104,1.2105,1.2103,1.214,1.2134,1.2137,1.2119,1.212,1.212,1.2137,0,1.1741,1.1791,1.1814,1.1853,1.188,1.19,1.1923,1.1951,1.1971,1.1996,1.2018,1.2047,1.2053,1.2066,1.2082,1.2106,1.2118,1.2105,1.214,1.2141,1.213,1.214,1.2135,1.2149,1.2139,1.214,1.214,0,1.177,1.1799,1.184,1.1877,1.1889,1.1909,1.1942,1.1966,1.1997,1.201,1.2033,1.205,1.2078,1.2078,1.2116,1.2107,1.2122,1.2136,1.2137,1.2142,1.2141,1.2144,1.2155,1.2156,1.2144,1.2144,1.2144,0,1.1767,1.1816,1.1847,1.1862,1.1906,1.192,1.1939,1.1969,1.1988,1.2016,1.2029,1.206,1.2077,1.2101,1.2125,1.2123,1.216,1.2163,1.2172,1.2171,1.2179,1.2179,1.2192,1.219,1.219,1.2189,1.2189,0,1.1785,1.1809,1.1846,1.1865,1.1892,1.1918,1.1944,1.1964,1.1991,1.2013,1.2032,1.2053,1.2084,1.2108,1.2127,1.2155,1.2163,1.2174,1.2179,1.2172,1.2171,1.2183,1.2182,1.219,1.219,1.219,1.219,0,1.1787,1.1813,1.1847,1.1885,1.1895,1.1913,1.1945,1.1964,1.1984,1.2012,1.202,1.2052,1.2081,1.2107,1.2146,1.2159,1.2187,1.2194,1.2177,1.2179,1.2187,1.2185,1.2208,1.2212,1.2207,1.2207,1.2207,0,1.1796,1.1815,1.1855,1.1871,1.1889,1.1915,1.1934,1.1959,1.1978,1.2013,1.2027,1.2057,1.2083,1.2129,1.2155,1.2185,1.2191,1.2197,1.2196,1.2188,1.2191,1.2189,1.2191,1.2197,1.2197,1.2197,1.2197,0,1.181,1.1821,1.1848,1.1877,1.1899,1.1924,1.195,1.1961,1.1992,1.2011,1.2041,1.2061,1.21,1.2129,1.2161,1.218,1.2193,1.2197,1.22,1.2194,1.2183,1.2188,1.2176,1.2196,1.2196,1.2196,1.2197,1.2197,1.1816,1.1832,1.1862,1.189,1.1912,1.1935,1.1953,1.1975,1.2,1.2034,1.2047,1.2077,1.2106,1.215,1.2168,1.2192,1.2194,1.22,1.2201,1.2202,1.22,1.2179,1.2198,1.2198,1.2198,1.2198,1.2198,0,1.1829,1.1849,1.1874,1.1909,1.193,1.194,1.1968,1.1985,1.2011,1.2037,1.2061,1.2094,1.2123,1.2151,1.218,1.2193,1.22,1.22,1.22,1.2204,1.2197,1.219,1.2194,1.2194,1.2194,1.2194,1.2194,1.2194,1.1839,1.1868,1.1882,1.1921,1.1941,1.1969,1.1985,1.2005,1.2026,1.2062,1.2085,1.2103,1.2129,1.216,1.2186,1.2194,1.2204,1.2202,1.2211,1.2204,1.2204,1.2204,1.2198,1.2204,1.2204,1.2216,1.2216,1.2216]},{"header":{"parameterUnit":"m.s-1","parameterCategory":1,"la1":30.2991,"la2":30.254,"lo1":-89.0895,"lo2":-89.0444,"dy":0.0017,"dx":0.0017,"nx":28,"ny":28,"refTime":"2023-11-06T03:00:00:Z","depth":0,"parameterNumber":3,"parameterNumberName":"V-component_of_WINDS"},"data":[0,0,0,0,0,0,0,0,0,0,0,0,0,0,0,0,0,0,0,0,0,0,0,0,0,0,0,0,0,0,0,0,0,0,0,0,0,0,0,0,0,0,0,0,0,0,0,0,0,0,0,0,0,0,0,0,0,0,3.1651,3.165,0,3.1589,3.1588,3.1588,3.1495,3.1493,3.1492,3.149,3.1428,3.1428,3.1428,0,0,0,0,0,0,0,0,0,0,0,0,0,3.1689,3.1688,3.1651,3.165,3.1649,3.1589,3.1588,3.1587,3.1495,3.1493,3.1491,3.1489,3.1428,3.1428,3.1428,0,0,0,0,0,0,0,0,0,0,0,0,0,3.1654,3.1688,3.1651,3.1596,3.159,3.1589,3.1588,3.1587,3.1495,3.1493,3.1491,3.1488,3.1428,3.1428,3.1428,3.1476,0,0,3.1427,3.1427,0,0,0,0,0,0,0,0,3.1656,3.1653,3.1605,3.16,3.1594,3.1547,3.1579,3.155,3.1496,3.1532,3.149,3.1487,3.147,3.1466,3.146,3.1473,3.147,3.1427,3.1427,3.1427,3.1427,0,0,0,0,0,0,0,3.1659,3.1655,3.1626,3.1604,3.1597,3.1574,3.1567,3.1573,3.1515,3.1528,3.1521,3.1515,3.1466,3.146,3.1458,3.1469,3.1427,3.1427,3.1427,3.1427,3.1516,3.1518,0,0,0,0,0,0,3.1669,3.1658,3.1628,3.1625,3.1619,3.1576,3.1567,3.1565,3.1515,3.1505,3.1517,3.1511,3.1462,3.1458,3.1455,3.1506,3.1427,3.1427,3.1427,3.1513,3.1516,3.1519,0,0,0,0,0,0,3.167,3.1668,3.1631,3.1639,3.1633,3.1577,3.1575,3.1565,3.1558,3.1507,3.1496,3.1522,3.146,3.1455,3.1471,3.1503,3.1427,3.1427,3.1511,3.1514,3.1518,3.1611,0,0,0,0,0,0,3.1672,3.1669,3.1687,3.164,3.1633,3.1648,3.1577,3.1565,3.1558,3.1549,3.1508,3.1499,3.1457,3.1471,3.1471,3.1501,3.1426,3.1507,3.1512,3.1517,3.1605,3.1617,3.1628,0,0,0,0,0,3.1674,3.1716,3.1688,3.1685,3.1654,3.165,3.1646,3.1597,3.1561,3.1579,3.1545,3.15,3.15,3.1474,3.1472,3.1503,3.1505,3.1511,3.1516,3.16,3.1615,3.1628,0,0,0,0,0,0,3.1769,3.1709,3.1677,3.1706,3.1684,3.1635,3.1655,3.1615,3.1603,3.1595,3.1535,3.1526,3.1549,3.1527,3.15,3.1546,3.1495,3.1501,3.1559,3.1574,3.1585,3.159,3.1426,0,0,0,0,0,3.1793,3.1795,3.1743,3.1773,3.1763,3.1712,3.1708,3.1672,3.1646,3.1637,3.1604,3.1581,3.1575,3.1573,3.1565,3.1601,3.159,3.1621,3.1633,3.1643,3.1649,3.1664,3.1677,3.1537,3.1537,3.1537,0,0,3.1844,3.1811,3.1817,3.1792,3.177,3.1773,3.1704,3.1711,3.1712,3.1638,3.165,3.1625,3.1595,3.162,3.163,3.1603,3.1684,3.165,3.1658,3.1658,3.1671,3.1684,3.1696,3.1541,3.1541,3.154,0,0,3.1937,3.1913,3.1935,3.1914,3.1882,3.1846,3.1852,3.1808,3.1788,3.1799,3.1742,3.1743,3.1735,3.1715,3.1705,3.1787,3.1745,3.1786,3.1848,3.1864,3.1875,3.1884,3.1912,3.1924,3.1792,3.1792,3.1792,0,3.2005,3.2006,3.1952,3.1961,3.1951,3.1882,3.1903,3.1886,3.1853,3.1848,3.1818,3.1804,3.178,3.1798,3.1818,3.1812,3.1816,3.1791,3.1877,3.1886,3.1894,3.1921,3.1932,3.1797,3.1797,3.1796,3.1796,0,3.209,3.2092,3.2113,3.2082,3.2074,3.2089,3.2036,3.2035,3.1999,3.1966,3.1977,3.1945,3.1928,3.1929,3.1895,3.1943,3.1927,3.1888,3.1836,3.1914,3.1937,3.1947,3.1805,3.1803,3.1801,3.18,0,0,3.2244,3.218,3.2188,3.2172,3.213,3.213,3.2142,3.2124,3.2124,3.2103,3.211,3.2103,3.2066,3.2054,3.2016,3.203,3.2096,3.1989,3.1987,3.2009,3.2145,3.2174,3.2187,3.2067,3.2069,3.207,3.2147,0,3.2328,3.2344,3.2294,3.2322,3.2322,3.2256,3.2265,3.224,3.2209,3.2205,3.2171,3.2166,3.2119,3.211,3.2121,3.2086,3.2122,3.2079,3.2073,3.2073,3.2083,3.2199,3.2231,3.2305,3.2156,3.2157,3.2159,0,3.243,3.2413,3.2441,3.2395,3.2393,3.2402,3.2381,3.2378,3.2347,3.2323,3.2308,3.2264,3.227,3.222,3.2228,3.22,3.2194,3.2176,3.2178,3.2176,3.2121,3.22,3.2328,3.2339,3.2173,3.2172,3.2171,0,3.2538,3.2522,3.2536,3.2524,3.2471,3.2479,3.2458,3.2424,3.2416,3.2398,3.2391,3.2374,3.2365,3.2352,3.2304,3.2272,3.2317,3.2263,3.2297,3.2298,3.231,3.231,3.2439,3.2307,3.2307,3.2307,3.2306,0,3.2638,3.2658,3.2584,3.2593,3.2612,3.2553,3.2574,3.2545,3.2516,3.2517,3.2459,3.2462,3.2397,3.2392,3.2354,3.2366,3.2362,3.2343,3.2333,3.2348,3.2351,3.2344,3.2338,3.2309,3.2309,3.2308,3.2308,0,3.2763,3.2715,3.2725,3.2673,3.266,3.2677,3.2632,3.2637,3.2602,3.2604,3.2602,3.2546,3.2537,3.2487,3.2467,3.2441,3.2466,3.2445,3.2476,3.247,3.2506,3.2503,3.2635,3.2649,3.2509,3.251,3.2511,0,3.2831,3.2844,3.2792,3.2789,3.2769,3.2765,3.2755,3.2698,3.269,3.2655,3.2664,3.265,3.2636,3.2625,3.2582,3.2566,3.2544,3.2591,3.2542,3.2556,3.2544,3.2544,3.2545,3.2603,3.2604,3.2606,3.2607,0,3.2955,3.2929,3.2918,3.2898,3.2889,3.287,3.2849,3.2849,3.2784,3.2779,3.2769,3.2757,3.2735,3.2722,3.2698,3.2675,3.263,3.2623,3.2629,3.2646,3.2663,3.2654,3.2505,3.262,3.2619,3.2618,3.2617,3.2617,3.3052,3.306,3.3025,3.3014,3.2991,3.2971,3.2973,3.2937,3.2927,3.2904,3.287,3.2864,3.283,3.2793,3.2773,3.2767,3.2742,3.2752,3.2755,3.2758,3.2766,3.2664,3.2763,3.2762,3.2762,3.2761,3.2761,0,3.3173,3.3146,3.3136,3.3107,3.3098,3.3055,3.3028,3.3024,3.3019,3.2991,3.2977,3.2964,3.295,3.2906,3.2887,3.289,3.2869,3.2887,3.2887,3.2882,3.279,3.2786,3.2904,3.2904,3.2904,3.2904,3.2904,3.2904,3.3235,3.3245,3.3215,3.3213,3.3185,3.3179,3.3167,3.3147,3.3125,3.3113,3.31,3.3071,3.3036,3.3013,3.2998,3.2985,3.2981,3.3006,3.2987,3.2902,3.2888,3.2875,3.2871,3.3005,3.3006,3.3078,3.3079,3.308]}]]